Time,TemperatureF,DewpointF,PressureIn,WindDirection,WindDirectionDegrees,WindSpeedMPH,WindSpeedGustMPH,Humidity,HourlyPrecipIn,Conditions,Clouds,dailyrainin,SoftwareType,DateUTC
2013-09-20 00:02:00,64.4,63.3,29.27,WSW,248,2.2,3.1,96,0.00,,,0.00,WUHU216HW,2013-09-20 05:02:00,
2013-09-20 00:07:00,64.4,63.3,29.27,WSW,248,1.1,3.1,96,0.00,,,0.00,WUHU216HW,2013-09-20 05:07:00,
2013-09-20 00:12:00,64.4,63.3,29.26,WSW,248,0.2,2.2,96,0.00,,,0.00,WUHU216HW,2013-09-20 05:12:00,
2013-09-20 00:17:00,64.4,63.3,29.26,WSW,248,2.5,2.5,96,0.00,,,0.00,WUHU216HW,2013-09-20 05:17:00,
2013-09-20 00:22:00,64.4,63.3,29.26,SW,225,0.7,2.5,96,0.00,,,0.00,WUHU216HW,2013-09-20 05:22:00,
2013-09-20 00:27:00,64.3,63.1,29.26,SSW,203,0.4,2.5,96,0.00,,,0.00,WUHU216HW,2013-09-20 05:27:00,
2013-09-20 00:32:00,64.3,63.1,29.26,SSW,203,1.3,1.3,96,0.00,,,0.00,WUHU216HW,2013-09-20 05:32:00,
2013-09-20 00:37:00,64.3,63.1,29.26,WSW,248,1.3,1.3,96,0.00,,,0.00,WUHU216HW,2013-09-20 05:37:00,
2013-09-20 00:42:00,64.4,63.3,29.26,SW,225,3.4,3.4,96,0.00,,,0.00,WUHU216HW,2013-09-20 05:42:00,
2013-09-20 00:47:00,64.4,63.3,29.26,SW,225,1.8,3.4,96,0.00,,,0.00,WUHU216HW,2013-09-20 05:47:00,
2013-09-20 00:52:00,64.4,63.3,29.27,SW,225,2.5,3.4,96,0.00,,,0.00,WUHU216HW,2013-09-20 05:52:00,
2013-09-20 00:57:00,64.6,63.5,29.27,SSW,203,2.5,2.5,96,0.00,,,0.00,WUHU216HW,2013-09-20 05:57:00,
2013-09-20 01:02:00,64.6,63.5,29.26,SSW,203,4.7,4.7,96,0.00,,,0.00,WUHU216HW,2013-09-20 06:02:00,
2013-09-20 01:07:00,64.6,63.5,29.27,SSW,203,5.1,5.1,96,0.00,,,0.00,WUHU216HW,2013-09-20 06:07:00,
2013-09-20 01:12:00,64.8,63.6,29.27,SSW,203,4.0,5.1,96,0.00,,,0.00,WUHU216HW,2013-09-20 06:12:00,
2013-09-20 01:17:00,64.8,63.6,29.27,SSW,203,5.1,5.1,96,0.00,,,0.00,WUHU216HW,2013-09-20 06:17:00,
2013-09-20 01:22:00,64.8,63.6,29.27,South,180,4.7,5.1,96,0.00,,,0.00,WUHU216HW,2013-09-20 06:22:00,
2013-09-20 01:28:00,64.8,63.6,29.27,SSW,203,3.1,5.1,96,0.00,,,0.00,WUHU216HW,2013-09-20 06:28:00,
2013-09-20 01:33:00,64.8,63.6,29.26,SSW,203,3.6,4.7,96,0.00,,,0.00,WUHU216HW,2013-09-20 06:33:00,
2013-09-20 01:38:00,64.8,63.6,29.26,SSW,203,4.3,4.3,96,0.00,,,0.00,WUHU216HW,2013-09-20 06:38:00,
2013-09-20 01:43:00,64.8,63.6,29.26,SW,225,2.9,4.3,96,0.00,,,0.00,WUHU216HW,2013-09-20 06:43:00,
2013-09-20 01:48:00,64.8,63.6,29.27,WSW,248,2.2,4.3,96,0.00,,,0.00,WUHU216HW,2013-09-20 06:48:00,
2013-09-20 01:53:00,64.8,63.6,29.27,WSW,248,6.5,6.5,96,0.00,,,0.00,WUHU216HW,2013-09-20 06:53:00,
2013-09-20 01:58:00,65.0,63.8,29.26,South,180,1.8,6.5,96,0.00,,,0.00,WUHU216HW,2013-09-20 06:58:00,
2013-09-20 02:03:00,65.0,63.8,29.26,West,270,2.7,6.5,96,0.00,,,0.00,WUHU216HW,2013-09-20 07:03:00,
2013-09-20 02:08:00,65.0,63.8,29.26,SW,225,1.6,2.7,96,0.00,,,0.00,WUHU216HW,2013-09-20 07:08:00,
2013-09-20 02:13:00,65.0,63.8,29.26,SW,225,2.0,2.7,96,0.00,,,0.00,WUHU216HW,2013-09-20 07:13:00,
2013-09-20 02:18:00,65.2,64.0,29.26,SSW,203,2.5,2.5,96,0.00,,,0.00,WUHU216HW,2013-09-20 07:18:00,
2013-09-20 02:23:00,65.2,64.3,29.26,SSW,203,2.7,2.7,97,0.00,,,0.00,WUHU216HW,2013-09-20 07:23:00,
2013-09-20 02:28:00,65.2,64.3,29.26,SSW,203,3.4,3.4,97,0.00,,,0.00,WUHU216HW,2013-09-20 07:28:00,
2013-09-20 02:33:00,65.2,64.0,29.25,WSW,248,6.7,6.7,96,0.00,,,0.00,WUHU216HW,2013-09-20 07:33:00,
2013-09-20 02:38:00,65.2,64.0,29.25,West,270,4.0,6.7,96,0.00,,,0.00,WUHU216HW,2013-09-20 07:38:00,
2013-09-20 02:43:00,65.2,64.3,29.25,SW,225,4.7,6.7,97,0.00,,,0.00,WUHU216HW,2013-09-20 07:43:00,
2013-09-20 02:48:00,65.3,64.2,29.25,SW,225,2.2,4.7,96,0.00,,,0.00,WUHU216HW,2013-09-20 07:48:00,
2013-09-20 02:53:00,65.3,64.2,29.25,WSW,248,3.4,4.7,96,0.00,,,0.00,WUHU216HW,2013-09-20 07:53:00,
2013-09-20 02:58:00,65.3,64.2,29.24,SW,225,2.5,3.4,96,0.00,,,0.00,WUHU216HW,2013-09-20 07:58:00,
2013-09-20 03:03:00,65.3,64.2,29.24,SW,225,2.9,3.4,96,0.00,,,0.00,WUHU216HW,2013-09-20 08:03:00,
2013-09-20 03:08:00,65.3,64.2,29.24,WSW,248,1.3,2.9,96,0.00,,,0.00,WUHU216HW,2013-09-20 08:08:00,
2013-09-20 03:13:00,65.5,64.4,29.24,West,270,3.6,3.6,96,0.00,,,0.00,WUHU216HW,2013-09-20 08:13:00,
2013-09-20 03:18:00,65.5,64.4,29.23,SSW,203,3.1,3.6,96,0.00,,,0.00,WUHU216HW,2013-09-20 08:18:00,
2013-09-20 03:23:00,65.5,64.4,29.23,WSW,248,2.9,3.6,96,0.00,,,0.00,WUHU216HW,2013-09-20 08:23:00,
2013-09-20 03:28:00,65.5,64.4,29.23,WSW,248,4.3,4.3,96,0.00,,,0.00,WUHU216HW,2013-09-20 08:28:00,
2013-09-20 03:33:00,65.5,64.4,29.22,West,270,1.1,4.3,96,0.00,,,0.00,WUHU216HW,2013-09-20 08:33:00,
2013-09-20 03:38:00,65.5,64.4,29.22,West,270,1.6,4.3,96,0.00,,,0.00,WUHU216HW,2013-09-20 08:38:00,
2013-09-20 03:43:00,65.5,64.4,29.22,SSW,203,1.1,1.6,96,0.00,,,0.00,WUHU216HW,2013-09-20 08:43:00,
2013-09-20 03:48:00,65.5,64.4,29.22,WSW,248,1.8,1.8,96,0.00,,,0.00,WUHU216HW,2013-09-20 08:48:00,
2013-09-20 03:53:00,65.5,64.4,29.22,SW,225,4.9,4.9,96,0.00,,,0.00,WUHU216HW,2013-09-20 08:53:00,
2013-09-20 03:58:00,65.5,64.4,29.22,West,270,1.3,4.9,96,0.00,,,0.00,WUHU216HW,2013-09-20 08:58:00,
2013-09-20 04:03:00,65.5,64.4,29.22,WSW,248,4.0,4.9,96,0.00,,,0.00,WUHU216HW,2013-09-20 09:03:00,
2013-09-20 04:08:00,65.7,64.5,29.22,SW,225,1.8,4.0,96,0.00,,,0.00,WUHU216HW,2013-09-20 09:08:00,
2013-09-20 04:13:00,65.5,64.4,29.22,WSW,248,6.3,6.3,96,0.00,,,0.00,WUHU216HW,2013-09-20 09:13:00,
2013-09-20 04:18:00,65.5,64.4,29.23,WSW,248,4.3,6.3,96,0.00,,,0.00,WUHU216HW,2013-09-20 09:18:00,
2013-09-20 04:23:00,65.5,64.4,29.23,WSW,248,2.9,6.3,96,0.00,,,0.00,WUHU216HW,2013-09-20 09:23:00,
2013-09-20 04:28:00,65.5,64.4,29.24,SW,225,3.6,4.3,96,0.00,,,0.00,WUHU216HW,2013-09-20 09:28:00,
2013-09-20 04:33:00,65.5,64.4,29.23,NNW,338,4.5,4.5,96,0.00,,,0.00,WUHU216HW,2013-09-20 09:33:00,
2013-09-20 04:38:00,65.5,64.4,29.23,West,270,2.9,4.5,96,0.00,,,0.00,WUHU216HW,2013-09-20 09:38:00,
2013-09-20 04:43:00,65.5,64.4,29.23,NW,315,2.5,4.5,96,0.00,,,0.00,WUHU216HW,2013-09-20 09:43:00,
2013-09-20 04:48:00,65.5,64.4,29.23,West,270,1.1,2.9,96,0.00,,,0.00,WUHU216HW,2013-09-20 09:48:00,
2013-09-20 04:53:00,65.5,64.4,29.23,WSW,248,2.7,2.7,96,0.00,,,0.00,WUHU216HW,2013-09-20 09:53:00,
2013-09-20 04:58:00,65.5,64.4,29.23,SW,225,1.6,2.7,96,0.00,,,0.00,WUHU216HW,2013-09-20 09:58:00,
2013-09-20 05:03:00,65.3,64.2,29.23,WSW,248,1.3,2.7,96,0.00,,,0.00,WUHU216HW,2013-09-20 10:03:00,
2013-09-20 05:08:00,65.3,64.2,29.23,WSW,248,0.9,1.8,96,0.00,,,0.00,WUHU216HW,2013-09-20 10:08:00,
2013-09-20 05:13:00,65.3,64.2,29.23,WSW,248,4.0,4.0,96,0.00,,,0.00,WUHU216HW,2013-09-20 10:13:00,
2013-09-20 05:18:00,65.3,64.2,29.23,WNW,293,3.6,4.0,96,0.00,,,0.00,WUHU216HW,2013-09-20 10:18:00,
2013-09-20 05:23:00,65.3,64.2,29.23,SW,225,2.2,4.0,96,0.00,,,0.00,WUHU216HW,2013-09-20 10:23:00,
2013-09-20 05:28:00,65.3,64.2,29.23,WSW,248,1.3,3.6,96,0.00,,,0.00,WUHU216HW,2013-09-20 10:28:00,
2013-09-20 05:33:00,65.3,64.2,29.23,WSW,248,1.8,2.2,96,0.00,,,0.00,WUHU216HW,2013-09-20 10:33:00,
2013-09-20 05:38:00,65.3,64.2,29.23,WSW,248,2.9,2.9,96,0.00,,,0.00,WUHU216HW,2013-09-20 10:38:00,
2013-09-20 05:43:00,65.2,64.0,29.23,WSW,248,1.3,2.9,96,0.00,,,0.00,WUHU216HW,2013-09-20 10:43:00,
2013-09-20 05:48:00,65.2,64.0,29.23,WSW,248,0.9,2.9,96,0.00,,,0.00,WUHU216HW,2013-09-20 10:48:00,
2013-09-20 05:53:00,65.2,64.0,29.24,SW,225,0.4,1.3,96,0.00,,,0.00,WUHU216HW,2013-09-20 10:53:00,
2013-09-20 05:58:00,65.0,63.8,29.24,SSW,203,1.8,1.8,96,0.00,,,0.00,WUHU216HW,2013-09-20 10:58:00,
2013-09-20 06:03:00,65.0,63.8,29.24,SSW,203,1.1,1.8,96,0.00,,,0.00,WUHU216HW,2013-09-20 11:03:00,
2013-09-20 06:08:00,65.0,63.8,29.24,SW,225,0.9,1.8,96,0.00,,,0.00,WUHU216HW,2013-09-20 11:08:00,
2013-09-20 06:13:00,65.2,64.0,29.24,SW,225,1.8,1.8,96,0.00,,,0.00,WUHU216HW,2013-09-20 11:13:00,
2013-09-20 06:18:00,65.2,64.0,29.24,SW,225,1.6,1.8,96,0.00,,,0.00,WUHU216HW,2013-09-20 11:18:00,
2013-09-20 06:23:00,65.2,64.0,29.24,SW,225,1.6,1.8,96,0.00,,,0.00,WUHU216HW,2013-09-20 11:23:00,
2013-09-20 06:28:00,65.2,64.0,29.24,SW,225,1.8,1.8,96,0.00,,,0.00,WUHU216HW,2013-09-20 11:28:00,
2013-09-20 06:33:00,65.2,64.0,29.25,SW,225,1.6,4.5,96,0.00,,,0.00,WUHU216HW,2013-09-20 11:33:00,
2013-09-20 06:38:00,65.3,64.2,29.25,SSW,203,2.9,4.5,96,0.00,,,0.00,WUHU216HW,2013-09-20 11:38:00,
2013-09-20 06:43:00,65.3,64.2,29.25,SSW,203,0.7,2.9,96,0.00,,,0.00,WUHU216HW,2013-09-20 11:43:00,
2013-09-20 06:48:00,65.3,64.2,29.25,SSW,203,1.8,2.9,96,0.00,,,0.00,WUHU216HW,2013-09-20 11:48:00,
2013-09-20 06:53:00,65.3,64.2,29.25,SSW,203,1.1,1.8,96,0.00,,,0.00,WUHU216HW,2013-09-20 11:53:00,
2013-09-20 06:58:00,65.3,64.2,29.25,SSW,203,2.2,2.2,96,0.00,,,0.00,WUHU216HW,2013-09-20 11:58:00,
2013-09-20 07:03:00,65.3,64.2,29.26,SW,225,2.7,2.7,96,0.01,,,0.01,WUHU216HW,2013-09-20 12:03:00,
2013-09-20 07:08:00,65.3,64.2,29.26,SW,225,1.8,2.7,96,0.05,,,0.05,WUHU216HW,2013-09-20 12:08:00,
2013-09-20 07:13:00,65.2,64.0,29.26,West,270,2.2,2.7,96,0.07,,,0.07,WUHU216HW,2013-09-20 12:13:00,
2013-09-20 07:18:00,65.2,64.0,29.26,SW,225,2.5,2.5,96,0.09,,,0.09,WUHU216HW,2013-09-20 12:18:00,
2013-09-20 07:23:00,65.2,64.0,29.26,WNW,293,1.6,2.5,96,0.09,,,0.09,WUHU216HW,2013-09-20 12:23:00,
2013-09-20 07:29:00,65.2,64.0,29.26,WSW,248,1.1,2.5,96,0.09,,,0.09,WUHU216HW,2013-09-20 12:29:00,
2013-09-20 07:34:00,65.2,64.0,29.26,West,270,1.8,1.8,96,0.09,,,0.09,WUHU216HW,2013-09-20 12:34:00,
2013-09-20 07:39:00,65.2,64.0,29.27,NW,315,4.0,4.0,96,0.09,,,0.09,WUHU216HW,2013-09-20 12:39:00,
2013-09-20 07:44:00,65.2,64.0,29.27,West,270,0.9,4.0,96,0.09,,,0.09,WUHU216HW,2013-09-20 12:44:00,
2013-09-20 07:49:00,65.3,64.2,29.26,WSW,248,1.3,4.0,96,0.09,,,0.09,WUHU216HW,2013-09-20 12:49:00,
2013-09-20 07:54:00,65.3,64.2,29.27,NW,315,1.6,1.6,96,0.09,,,0.09,WUHU216HW,2013-09-20 12:54:00,
2013-09-20 07:59:00,65.3,64.2,29.27,WNW,293,5.8,5.8,96,0.08,,,0.09,WUHU216HW,2013-09-20 12:59:00,
2013-09-20 08:04:00,65.3,64.2,29.27,WSW,248,4.5,5.8,96,0.04,,,0.09,WUHU216HW,2013-09-20 13:04:00,
2013-09-20 08:09:00,65.2,64.0,29.26,WNW,293,5.4,5.8,96,0.02,,,0.09,WUHU216HW,2013-09-20 13:09:00,
2013-09-20 08:14:00,65.2,64.0,29.27,NW,315,2.0,5.4,96,0.02,,,0.09,WUHU216HW,2013-09-20 13:14:00,
2013-09-20 08:19:00,65.2,64.0,29.27,WNW,293,3.4,5.4,96,0.00,,,0.09,WUHU216HW,2013-09-20 13:19:00,
2013-09-20 08:24:00,65.2,64.0,29.27,WSW,248,3.8,3.8,96,0.00,,,0.09,WUHU216HW,2013-09-20 13:24:00,
2013-09-20 08:29:00,65.2,64.0,29.27,WNW,293,3.4,3.8,96,0.00,,,0.09,WUHU216HW,2013-09-20 13:29:00,
2013-09-20 08:34:00,65.2,64.0,29.27,NW,315,3.4,3.8,96,0.00,,,0.09,WUHU216HW,2013-09-20 13:34:00,
2013-09-20 08:39:00,65.2,64.0,29.27,WNW,293,3.6,3.6,96,0.00,,,0.09,WUHU216HW,2013-09-20 13:39:00,
2013-09-20 08:44:00,65.2,64.0,29.28,WNW,293,1.8,3.6,96,0.00,,,0.09,WUHU216HW,2013-09-20 13:44:00,
2013-09-20 08:49:00,65.2,64.0,29.28,WNW,293,3.1,3.6,96,0.00,,,0.09,WUHU216HW,2013-09-20 13:49:00,
2013-09-20 08:54:00,65.2,64.0,29.28,NW,315,3.6,3.6,96,0.00,,,0.09,WUHU216HW,2013-09-20 13:54:00,
2013-09-20 08:59:00,65.2,64.0,29.28,WNW,293,4.3,5.8,96,0.00,,,0.09,WUHU216HW,2013-09-20 13:59:00,
2013-09-20 09:04:00,65.2,64.0,29.28,WNW,293,1.8,5.8,96,0.00,,,0.09,WUHU216HW,2013-09-20 14:04:00,
2013-09-20 09:09:00,65.2,63.7,29.29,NW,315,3.6,4.3,95,0.00,,,0.09,WUHU216HW,2013-09-20 14:09:00,
2013-09-20 09:14:00,65.0,63.6,29.29,WSW,248,2.0,3.6,95,0.00,,,0.09,WUHU216HW,2013-09-20 14:14:00,
2013-09-20 09:19:00,65.2,63.7,29.29,WNW,293,2.7,3.6,95,0.00,,,0.09,WUHU216HW,2013-09-20 14:19:00,
2013-09-20 09:24:00,65.2,63.4,29.29,West,270,4.9,4.9,94,0.00,,,0.09,WUHU216HW,2013-09-20 14:24:00,
2013-09-20 09:29:00,65.2,63.4,29.29,West,270,4.7,4.9,94,0.00,,,0.09,WUHU216HW,2013-09-20 14:29:00,
2013-09-20 09:34:00,65.2,63.4,29.29,NNW,338,5.4,5.4,94,0.00,,,0.09,WUHU216HW,2013-09-20 14:34:00,
2013-09-20 09:39:00,65.2,63.4,29.29,WNW,293,4.0,5.4,94,0.00,,,0.09,WUHU216HW,2013-09-20 14:39:00,
2013-09-20 09:44:00,65.2,63.4,29.29,NW,315,2.5,5.4,94,0.00,,,0.09,WUHU216HW,2013-09-20 14:44:00,
2013-09-20 09:49:00,65.3,63.5,29.29,NW,315,6.3,6.3,94,0.00,,,0.09,WUHU216HW,2013-09-20 14:49:00,
2013-09-20 09:54:00,65.3,63.3,29.29,NNW,338,6.3,6.5,93,0.00,,,0.09,WUHU216HW,2013-09-20 14:54:00,
2013-09-20 09:59:00,65.3,63.3,29.29,WNW,293,5.1,6.5,93,0.00,,,0.09,WUHU216HW,2013-09-20 14:59:00,
2013-09-20 10:04:00,65.3,63.3,29.29,WNW,293,4.0,6.3,93,0.00,,,0.09,WUHU216HW,2013-09-20 15:04:00,
2013-09-20 10:09:00,65.5,63.1,29.29,NNW,338,7.6,7.6,92,0.00,,,0.09,WUHU216HW,2013-09-20 15:09:00,
2013-09-20 10:14:00,65.7,63.3,29.29,NW,315,6.3,10.1,92,0.00,,,0.09,WUHU216HW,2013-09-20 15:14:00,
2013-09-20 10:19:00,65.9,63.2,29.29,NNW,338,7.6,10.1,91,0.00,,,0.09,WUHU216HW,2013-09-20 15:19:00,
2013-09-20 10:24:00,66.1,63.4,29.29,West,270,10.7,10.7,91,0.00,,,0.09,WUHU216HW,2013-09-20 15:24:00,
2013-09-20 10:29:00,66.4,63.6,29.29,West,270,6.7,10.7,91,0.00,,,0.09,WUHU216HW,2013-09-20 15:29:00,
2013-09-20 10:34:00,66.6,63.8,29.29,WNW,293,6.3,10.7,91,0.00,,,0.09,WUHU216HW,2013-09-20 15:34:00,
2013-09-20 10:39:00,66.8,63.7,29.29,WSW,248,4.0,6.7,90,0.00,,,0.09,WUHU216HW,2013-09-20 15:39:00,
2013-09-20 10:44:00,67.0,63.3,29.29,NW,315,6.5,6.5,88,0.00,,,0.09,WUHU216HW,2013-09-20 15:44:00,
2013-09-20 10:49:00,67.0,63.3,29.29,NNW,338,8.5,8.5,88,0.00,,,0.09,WUHU216HW,2013-09-20 15:49:00,
2013-09-20 10:54:00,67.0,62.7,29.29,NW,315,8.9,8.9,86,0.00,,,0.09,WUHU216HW,2013-09-20 15:54:00,
2013-09-20 10:59:00,67.3,62.6,29.28,NW,315,7.6,8.9,85,0.00,,,0.09,WUHU216HW,2013-09-20 15:59:00,
2013-09-20 11:04:00,67.5,62.8,29.29,NW,315,8.7,8.9,85,0.00,,,0.09,WUHU216HW,2013-09-20 16:04:00,
2013-09-20 11:09:00,67.7,62.6,29.29,NW,315,5.8,8.7,84,0.00,,,0.09,WUHU216HW,2013-09-20 16:09:00,
2013-09-20 11:14:00,67.7,62.6,29.28,WNW,293,5.1,8.7,84,0.00,,,0.09,WUHU216HW,2013-09-20 16:14:00,
2013-09-20 11:19:00,67.7,62.4,29.29,WNW,293,4.7,5.8,83,0.00,,,0.09,WUHU216HW,2013-09-20 16:19:00,
2013-09-20 11:24:00,67.7,62.6,29.28,NW,315,4.9,5.1,84,0.00,,,0.09,WUHU216HW,2013-09-20 16:24:00,
2013-09-20 11:29:00,67.7,62.0,29.28,West,270,2.7,4.9,82,0.00,,,0.09,WUHU216HW,2013-09-20 16:29:00,
2013-09-20 11:34:00,68.0,62.7,29.28,NNW,338,2.5,4.9,83,0.00,,,0.09,WUHU216HW,2013-09-20 16:34:00,
2013-09-20 11:39:00,68.0,62.7,29.28,WNW,293,7.4,7.4,83,0.00,,,0.09,WUHU216HW,2013-09-20 16:39:00,
2013-09-20 11:44:00,68.0,62.1,29.28,WSW,248,6.3,7.4,81,0.00,,,0.09,WUHU216HW,2013-09-20 16:44:00,
2013-09-20 11:49:00,67.9,61.9,29.28,SW,225,4.0,7.4,81,0.00,,,0.09,WUHU216HW,2013-09-20 16:49:00,
2013-09-20 11:54:00,68.0,62.1,29.28,West,270,1.6,6.3,81,0.00,,,0.09,WUHU216HW,2013-09-20 16:54:00,
2013-09-20 11:59:00,68.4,63.1,29.28,NW,315,6.5,6.5,83,0.00,,,0.09,WUHU216HW,2013-09-20 16:59:00,
2013-09-20 12:04:00,68.6,62.2,29.28,WSW,248,2.0,6.5,80,0.00,,,0.09,WUHU216HW,2013-09-20 17:04:00,
2013-09-20 12:09:00,68.8,62.4,29.28,WSW,248,3.6,6.5,80,0.00,,,0.09,WUHU216HW,2013-09-20 17:09:00,
2013-09-20 12:14:00,68.6,61.8,29.28,NW,315,4.7,4.9,79,0.00,,,0.09,WUHU216HW,2013-09-20 17:14:00,
2013-09-20 12:19:00,68.6,62.2,29.27,WNW,293,2.0,4.9,80,0.00,,,0.09,WUHU216HW,2013-09-20 17:19:00,
2013-09-20 12:24:00,69.3,61.7,29.27,WSW,248,2.2,4.7,77,0.00,,,0.09,WUHU216HW,2013-09-20 17:24:00,
2013-09-20 12:29:00,69.5,61.9,29.27,SSW,203,3.8,4.7,77,0.00,,,0.09,WUHU216HW,2013-09-20 17:29:00,
2013-09-20 12:34:00,69.5,61.9,29.27,WSW,248,3.1,3.8,77,0.00,,,0.09,WUHU216HW,2013-09-20 17:34:00,
2013-09-20 12:39:00,70.0,62.8,29.27,NW,315,4.9,6.3,78,0.00,,,0.09,WUHU216HW,2013-09-20 17:39:00,
2013-09-20 12:44:00,70.2,63.7,29.27,NNW,338,4.9,6.3,80,0.00,,,0.09,WUHU216HW,2013-09-20 17:44:00,
2013-09-20 12:49:00,70.4,63.6,29.27,WNW,293,6.5,6.5,79,0.00,,,0.09,WUHU216HW,2013-09-20 17:49:00,
2013-09-20 12:54:00,70.2,62.2,29.27,West,270,1.1,6.5,76,0.00,,,0.09,WUHU216HW,2013-09-20 17:54:00,
2013-09-20 12:59:00,70.2,61.5,29.27,WNW,293,3.8,6.5,74,0.00,,,0.09,WUHU216HW,2013-09-20 17:59:00,
2013-09-20 13:04:00,69.7,62.1,29.27,WNW,293,6.3,6.3,77,0.00,,,0.09,WUHU216HW,2013-09-20 18:04:00,
2013-09-20 13:09:00,69.5,61.1,29.27,NW,315,8.9,8.9,75,0.00,,,0.09,WUHU216HW,2013-09-20 18:09:00,
2013-09-20 13:14:00,69.8,61.5,29.27,NW,315,6.9,8.9,75,0.00,,,0.09,WUHU216HW,2013-09-20 18:14:00,
2013-09-20 13:19:00,70.0,61.7,29.27,NNW,338,3.1,8.9,75,0.00,,,0.09,WUHU216HW,2013-09-20 18:19:00,
2013-09-20 13:24:00,70.2,61.5,29.27,NW,315,4.7,6.9,74,0.00,,,0.09,WUHU216HW,2013-09-20 18:24:00,
2013-09-20 13:29:00,70.0,61.7,29.27,NNW,338,6.5,6.5,75,0.00,,,0.09,WUHU216HW,2013-09-20 18:29:00,
2013-09-20 13:34:00,69.3,61.4,29.27,WNW,293,6.0,6.5,76,0.00,,,0.09,WUHU216HW,2013-09-20 18:34:00,
2013-09-20 13:39:00,67.9,60.4,29.27,NW,315,13.0,13.0,77,0.00,,,0.09,WUHU216HW,2013-09-20 18:39:00,
2013-09-20 13:44:00,67.0,60.0,29.27,NW,315,11.9,13.0,78,0.00,,,0.09,WUHU216HW,2013-09-20 18:44:00,
2013-09-20 13:49:00,66.4,59.8,29.28,NNW,338,12.1,13.0,79,0.00,,,0.09,WUHU216HW,2013-09-20 18:49:00,
2013-09-20 13:54:00,65.9,59.2,29.28,NNW,338,6.9,12.1,79,0.00,,,0.09,WUHU216HW,2013-09-20 18:54:00,
2013-09-20 13:59:00,65.5,58.5,29.28,NNW,338,13.2,13.2,78,0.00,,,0.09,WUHU216HW,2013-09-20 18:59:00,
2013-09-20 14:04:00,65.3,58.7,29.28,WNW,293,6.9,13.2,79,0.00,,,0.09,WUHU216HW,2013-09-20 19:04:00,
2013-09-20 14:09:00,65.5,58.9,29.28,NW,315,7.8,13.2,79,0.00,,,0.09,WUHU216HW,2013-09-20 19:09:00,
2013-09-20 14:14:00,65.5,58.2,29.27,NW,315,10.1,10.1,77,0.00,,,0.09,WUHU216HW,2013-09-20 19:14:00,
2013-09-20 14:19:00,65.5,57.8,29.27,NNW,338,9.8,10.1,76,0.00,,,0.09,WUHU216HW,2013-09-20 19:19:00,
2013-09-20 14:24:00,65.5,57.8,29.27,SW,225,5.8,9.8,76,0.00,,,0.09,WUHU216HW,2013-09-20 19:24:00,
2013-09-20 14:29:00,65.7,57.5,29.28,WNW,293,12.8,12.8,75,0.00,,,0.09,WUHU216HW,2013-09-20 19:29:00,
2013-09-20 14:34:00,65.7,57.9,29.28,WNW,293,4.7,12.8,76,0.00,,,0.09,WUHU216HW,2013-09-20 19:34:00,
2013-09-20 14:39:00,65.9,57.7,29.28,WNW,293,11.0,12.8,75,0.00,,,0.09,WUHU216HW,2013-09-20 19:39:00,
2013-09-20 14:44:00,65.7,57.2,29.28,West,270,6.3,11.0,74,0.00,,,0.09,WUHU216HW,2013-09-20 19:44:00,
2013-09-20 14:49:00,65.5,57.0,29.28,WSW,248,4.7,11.0,74,0.00,,,0.09,WUHU216HW,2013-09-20 19:49:00,
2013-09-20 14:54:00,65.3,57.2,29.28,NNW,338,4.0,6.3,75,0.00,,,0.09,WUHU216HW,2013-09-20 19:54:00,
2013-09-20 14:59:00,65.3,56.8,29.28,West,270,4.0,4.7,74,0.00,,,0.09,WUHU216HW,2013-09-20 19:59:00,
2013-09-20 15:04:00,65.2,56.7,29.28,WSW,248,4.7,4.7,74,0.00,,,0.09,WUHU216HW,2013-09-20 20:04:00,
2013-09-20 15:09:00,65.2,56.7,29.28,SW,225,6.7,6.7,74,0.00,,,0.09,WUHU216HW,2013-09-20 20:09:00,
2013-09-20 15:14:00,65.0,56.5,29.28,WSW,248,4.5,6.7,74,0.00,,,0.09,WUHU216HW,2013-09-20 20:14:00,
2013-09-20 15:19:00,64.6,56.9,29.29,NNW,338,2.5,6.7,76,0.00,,,0.09,WUHU216HW,2013-09-20 20:19:00,
2013-09-20 15:24:00,64.6,56.9,29.28,NW,315,11.6,11.6,76,0.00,,,0.09,WUHU216HW,2013-09-20 20:24:00,
2013-09-20 15:29:00,64.4,56.7,29.29,WNW,293,2.5,11.6,76,0.00,,,0.09,WUHU216HW,2013-09-20 20:29:00,
2013-09-20 15:34:00,64.4,56.3,29.28,WNW,293,3.4,11.6,75,0.00,,,0.09,WUHU216HW,2013-09-20 20:34:00,
2013-09-20 15:39:00,64.3,56.5,29.28,WSW,248,4.0,6.3,76,0.00,,,0.09,WUHU216HW,2013-09-20 20:39:00,
2013-09-20 15:44:00,64.3,56.5,29.28,West,270,4.7,6.3,76,0.00,,,0.09,WUHU216HW,2013-09-20 20:44:00,
2013-09-20 15:49:00,64.4,56.3,29.28,WNW,293,7.8,7.8,75,0.00,,,0.09,WUHU216HW,2013-09-20 20:49:00,
2013-09-20 15:54:00,64.1,55.6,29.28,SSW,203,8.5,8.5,74,0.00,,,0.09,WUHU216HW,2013-09-20 20:54:00,
2013-09-20 15:59:00,63.9,54.7,29.29,NW,315,7.6,8.5,72,0.00,,,0.09,WUHU216HW,2013-09-20 20:59:00,
2013-09-20 16:04:00,64.1,55.3,29.28,NNW,338,8.5,8.5,73,0.00,,,0.09,WUHU216HW,2013-09-20 21:04:00,
2013-09-20 16:09:00,64.8,56.0,29.28,NW,315,2.5,8.5,73,0.00,,,0.09,WUHU216HW,2013-09-20 21:09:00,
2013-09-20 16:14:00,65.2,55.5,29.28,NW,315,4.3,8.5,71,0.00,,,0.09,WUHU216HW,2013-09-20 21:14:00,
2013-09-20 16:19:00,65.5,56.3,29.28,NW,315,2.7,4.3,72,0.00,,,0.09,WUHU216HW,2013-09-20 21:19:00,
2013-09-20 16:24:00,65.5,55.9,29.28,WNW,293,7.4,7.4,71,0.00,,,0.09,WUHU216HW,2013-09-20 21:24:00,
2013-09-20 16:29:00,65.5,55.9,29.28,NW,315,2.9,7.4,71,0.00,,,0.09,WUHU216HW,2013-09-20 21:29:00,
2013-09-20 16:34:00,65.5,56.3,29.28,NW,315,2.5,7.4,72,0.00,,,0.09,WUHU216HW,2013-09-20 21:34:00,
2013-09-20 16:39:00,65.2,55.5,29.28,WSW,248,2.7,7.8,71,0.00,,,0.09,WUHU216HW,2013-09-20 21:39:00,
2013-09-20 16:44:00,65.0,55.4,29.28,NW,315,4.0,7.8,71,0.00,,,0.09,WUHU216HW,2013-09-20 21:44:00,
2013-09-20 16:49:00,65.0,55.8,29.28,NW,315,5.4,5.4,72,0.00,,,0.09,WUHU216HW,2013-09-20 21:49:00,
2013-09-20 16:54:00,64.8,55.3,29.28,WNW,293,4.0,5.4,71,0.00,,,0.09,WUHU216HW,2013-09-20 21:54:00,
2013-09-20 16:59:00,64.6,55.5,29.28,West,270,3.6,5.4,72,0.00,,,0.09,WUHU216HW,2013-09-20 21:59:00,
2013-09-20 17:04:00,64.4,55.3,29.29,West,270,3.4,4.0,72,0.00,,,0.09,WUHU216HW,2013-09-20 22:04:00,
2013-09-20 17:09:00,64.4,55.3,29.29,NW,315,8.7,8.7,72,0.00,,,0.09,WUHU216HW,2013-09-20 22:09:00,
2013-09-20 17:14:00,64.4,55.6,29.28,WNW,293,3.1,8.7,73,0.00,,,0.09,WUHU216HW,2013-09-20 22:14:00,
2013-09-20 17:19:00,64.1,55.3,29.29,NW,315,4.7,8.7,73,0.00,,,0.09,WUHU216HW,2013-09-20 22:19:00,
2013-09-20 17:24:00,63.9,55.4,29.28,WNW,293,5.8,5.8,74,0.00,,,0.09,WUHU216HW,2013-09-20 22:24:00,
2013-09-20 17:29:00,63.7,55.3,29.28,WSW,248,5.4,5.8,74,0.00,,,0.09,WUHU216HW,2013-09-20 22:29:00,
2013-09-20 17:34:00,63.7,55.3,29.28,NW,315,5.1,5.4,74,0.00,,,0.09,WUHU216HW,2013-09-20 22:34:00,
2013-09-20 17:39:00,63.7,55.3,29.28,WNW,293,3.4,5.4,74,0.00,,,0.09,WUHU216HW,2013-09-20 22:39:00,
2013-09-20 17:44:00,63.5,55.1,29.29,NW,315,6.3,6.3,74,0.00,,,0.09,WUHU216HW,2013-09-20 22:44:00,
2013-09-20 17:49:00,63.5,55.1,29.28,NW,315,5.4,6.3,74,0.00,,,0.09,WUHU216HW,2013-09-20 22:49:00,
2013-09-20 17:54:00,63.5,55.1,29.29,NW,315,5.1,6.3,74,0.00,,,0.09,WUHU216HW,2013-09-20 22:54:00,
2013-09-20 17:59:00,63.7,54.9,29.28,WNW,293,10.5,10.5,73,0.00,,,0.09,WUHU216HW,2013-09-20 22:59:00,
2013-09-20 18:04:00,63.5,54.4,29.28,NW,315,5.4,10.5,72,0.00,,,0.09,WUHU216HW,2013-09-20 23:04:00,
2013-09-20 18:09:00,63.4,54.2,29.28,NW,315,2.2,10.5,72,0.00,,,0.09,WUHU216HW,2013-09-20 23:09:00,
2013-09-20 18:14:00,63.2,54.0,29.28,WNW,293,0.9,5.4,72,0.00,,,0.09,WUHU216HW,2013-09-20 23:14:00,
2013-09-20 18:19:00,62.6,53.8,29.29,NW,315,3.8,3.8,73,0.00,,,0.09,WUHU216HW,2013-09-20 23:19:00,
2013-09-20 18:24:00,62.6,53.8,29.28,WSW,248,6.9,6.9,73,0.00,,,0.09,WUHU216HW,2013-09-20 23:24:00,
2013-09-20 18:29:00,62.3,53.5,29.29,WNW,293,2.5,6.9,73,0.00,,,0.09,WUHU216HW,2013-09-20 23:29:00,
2013-09-20 18:34:00,61.9,53.2,29.29,NW,315,5.4,6.9,73,0.00,,,0.09,WUHU216HW,2013-09-20 23:34:00,
2013-09-20 18:39:00,61.7,53.4,29.29,West,270,1.8,5.4,74,0.00,,,0.09,WUHU216HW,2013-09-20 23:39:00,
2013-09-20 18:44:00,61.6,53.2,29.29,WSW,248,1.1,5.4,74,0.00,,,0.09,WUHU216HW,2013-09-20 23:44:00,
2013-09-20 18:49:00,61.2,53.3,29.29,WNW,293,1.8,1.8,75,0.00,,,0.09,WUHU216HW,2013-09-20 23:49:00,
2013-09-20 18:54:00,60.8,53.3,29.29,NW,315,3.1,4.7,76,0.00,,,0.09,WUHU216HW,2013-09-20 23:54:00,
2013-09-20 18:59:00,60.8,53.3,29.29,NNW,338,1.8,4.7,76,0.00,,,0.09,WUHU216HW,2013-09-20 23:59:00,
2013-09-20 19:04:00,60.7,53.1,29.29,WNW,293,1.1,3.1,76,0.00,,,0.09,WUHU216HW,2013-09-21 00:04:00,
2013-09-20 19:09:00,60.3,53.1,29.30,NW,315,2.7,2.9,77,0.00,,,0.09,WUHU216HW,2013-09-21 00:09:00,
2013-09-20 19:14:00,60.1,52.9,29.30,NW,315,2.7,2.9,77,0.00,,,0.09,WUHU216HW,2013-09-21 00:14:00,
2013-09-20 19:19:00,59.8,52.6,29.30,WNW,293,2.5,2.7,77,0.00,,,0.09,WUHU216HW,2013-09-21 00:19:00,
2013-09-20 19:24:00,59.6,52.4,29.30,NW,315,3.1,3.1,77,0.00,,,0.09,WUHU216HW,2013-09-21 00:24:00,
2013-09-20 19:29:00,59.2,52.4,29.30,WNW,293,1.1,3.8,78,0.00,,,0.09,WUHU216HW,2013-09-21 00:29:00,
2013-09-20 19:34:00,59.2,52.4,29.30,WNW,293,1.8,3.8,78,0.00,,,0.09,WUHU216HW,2013-09-21 00:34:00,
2013-09-20 19:39:00,59.0,52.2,29.30,West,270,1.3,1.8,78,0.00,,,0.09,WUHU216HW,2013-09-21 00:39:00,
2013-09-20 19:44:00,59.0,52.6,29.31,West,270,1.6,1.8,79,0.00,,,0.09,WUHU216HW,2013-09-21 00:44:00,
2013-09-20 19:49:00,59.0,52.6,29.31,WSW,248,2.7,2.7,79,0.00,,,0.09,WUHU216HW,2013-09-21 00:49:00,
2013-09-20 19:54:00,59.0,52.6,29.31,WSW,248,1.1,2.7,79,0.00,,,0.09,WUHU216HW,2013-09-21 00:54:00,
2013-09-20 19:59:00,58.9,52.7,29.31,WSW,248,1.6,2.7,80,0.00,,,0.09,WUHU216HW,2013-09-21 00:59:00,
2013-09-20 20:04:00,58.9,52.7,29.31,SW,225,3.6,4.3,80,0.00,,,0.09,WUHU216HW,2013-09-21 01:04:00,
2013-09-20 20:09:00,58.9,52.7,29.31,West,270,1.1,4.3,80,0.00,,,0.09,WUHU216HW,2013-09-21 01:09:00,
2013-09-20 20:14:00,58.7,52.6,29.31,WNW,293,2.9,3.6,80,0.00,,,0.09,WUHU216HW,2013-09-21 01:14:00,
2013-09-20 20:19:00,58.7,52.9,29.32,WNW,293,1.6,2.9,81,0.00,,,0.09,WUHU216HW,2013-09-21 01:19:00,
2013-09-20 20:24:00,58.7,52.9,29.32,West,270,5.4,5.4,81,0.00,,,0.09,WUHU216HW,2013-09-21 01:24:00,
2013-09-20 20:29:00,58.9,53.1,29.32,WSW,248,5.4,5.4,81,0.00,,,0.09,WUHU216HW,2013-09-21 01:29:00,
2013-09-20 20:34:00,59.0,53.6,29.32,NW,315,4.0,13.0,82,0.00,,,0.09,WUHU216HW,2013-09-21 01:34:00,
2013-09-20 20:39:00,59.0,53.9,29.32,WNW,293,7.4,13.0,83,0.00,,,0.09,WUHU216HW,2013-09-21 01:39:00,
2013-09-20 20:44:00,58.9,53.7,29.32,WNW,293,5.4,7.4,83,0.00,,,0.09,WUHU216HW,2013-09-21 01:44:00,
2013-09-20 20:49:00,58.7,53.8,29.32,WNW,293,5.6,7.4,84,0.00,,,0.09,WUHU216HW,2013-09-21 01:49:00,
2013-09-20 20:54:00,58.7,53.8,29.32,WNW,293,3.4,6.3,84,0.00,,,0.09,WUHU216HW,2013-09-21 01:54:00,
2013-09-20 20:59:00,58.5,54.0,29.32,WNW,293,6.0,6.0,85,0.00,,,0.09,WUHU216HW,2013-09-21 01:59:00,
2013-09-20 21:04:00,58.3,54.2,29.32,NW,315,6.0,6.0,86,0.00,,,0.09,WUHU216HW,2013-09-21 02:04:00,
2013-09-20 21:09:00,58.3,53.8,29.32,NW,315,4.5,6.0,85,0.00,,,0.09,WUHU216HW,2013-09-21 02:09:00,
2013-09-20 21:14:00,58.1,53.6,29.32,NNW,338,4.9,6.0,85,0.00,,,0.09,WUHU216HW,2013-09-21 02:14:00,
2013-09-20 21:19:00,58.1,54.0,29.32,NW,315,5.4,5.4,86,0.00,,,0.09,WUHU216HW,2013-09-21 02:19:00,
2013-09-20 21:24:00,58.1,54.3,29.32,NNW,338,3.4,5.4,87,0.00,,,0.09,WUHU216HW,2013-09-21 02:24:00,
2013-09-20 21:29:00,58.0,54.1,29.32,NNW,338,3.6,5.4,87,0.00,,,0.09,WUHU216HW,2013-09-21 02:29:00,
2013-09-20 21:34:00,58.0,53.8,29.32,NW,315,2.7,3.6,86,0.00,,,0.09,WUHU216HW,2013-09-21 02:34:00,
2013-09-20 21:39:00,58.0,53.8,29.32,NW,315,4.0,4.0,86,0.00,,,0.09,WUHU216HW,2013-09-21 02:39:00,
2013-09-20 21:44:00,58.0,54.1,29.32,NNW,338,6.3,6.3,87,0.00,,,0.09,WUHU216HW,2013-09-21 02:44:00,
2013-09-20 21:49:00,58.0,54.1,29.32,NW,315,4.7,6.3,87,0.00,,,0.09,WUHU216HW,2013-09-21 02:49:00,
2013-09-20 21:54:00,58.0,54.1,29.32,NNW,338,5.6,6.3,87,0.00,,,0.09,WUHU216HW,2013-09-21 02:54:00,
2013-09-20 21:59:00,58.0,54.1,29.32,NW,315,6.3,6.3,87,0.00,,,0.09,WUHU216HW,2013-09-21 02:59:00,
2013-09-20 22:04:00,58.0,54.1,29.32,NW,315,7.4,7.4,87,0.00,,,0.09,WUHU216HW,2013-09-21 03:04:00,
2013-09-20 22:09:00,58.0,54.1,29.32,NW,315,6.3,7.4,87,0.00,,,0.09,WUHU216HW,2013-09-21 03:09:00,
2013-09-20 22:14:00,57.8,53.9,29.32,NW,315,7.6,7.6,87,0.00,,,0.09,WUHU216HW,2013-09-21 03:14:00,
2013-09-20 22:19:00,57.6,53.7,29.32,NNW,338,4.3,7.6,87,0.00,,,0.09,WUHU216HW,2013-09-21 03:19:00,
2013-09-20 22:24:00,57.6,53.7,29.32,NW,315,3.1,7.6,87,0.00,,,0.09,WUHU216HW,2013-09-21 03:24:00,
2013-09-20 22:29:00,57.6,54.1,29.32,NNW,338,5.8,5.8,88,0.00,,,0.09,WUHU216HW,2013-09-21 03:29:00,
2013-09-20 22:34:00,57.4,53.6,29.32,NW,315,7.4,7.4,87,0.00,,,0.09,WUHU216HW,2013-09-21 03:34:00,
2013-09-20 22:39:00,57.4,53.9,29.32,NW,315,6.3,7.4,88,0.00,,,0.09,WUHU216HW,2013-09-21 03:39:00,
2013-09-20 22:44:00,57.4,53.6,29.32,West,270,5.6,7.4,87,0.00,,,0.09,WUHU216HW,2013-09-21 03:44:00,
2013-09-20 22:49:00,57.2,53.4,29.32,NNW,338,7.6,7.6,87,0.00,,,0.09,WUHU216HW,2013-09-21 03:49:00,
2013-09-20 22:54:00,57.2,53.4,29.32,North,0,2.5,7.6,87,0.00,,,0.09,WUHU216HW,2013-09-21 03:54:00,
2013-09-20 22:59:00,57.2,53.4,29.32,WNW,293,1.3,7.6,87,0.00,,,0.09,WUHU216HW,2013-09-21 03:59:00,
2013-09-20 23:01:00,57.2,53.4,29.32,WNW,293,1.3,7.6,87,0.00,,,0.09,WUHU216HW,2013-09-21 04:01:00,
2013-09-20 23:06:00,57.2,53.4,29.32,NNW,338,3.8,5.6,87,0.00,,,0.09,WUHU216HW,2013-09-21 04:06:00,
2013-09-20 23:11:00,56.9,53.4,29.32,WNW,293,1.3,3.8,88,0.00,,,0.09,WUHU216HW,2013-09-21 04:11:00,
2013-09-20 23:16:00,56.7,53.2,29.33,NW,315,3.1,3.8,88,0.00,,,0.09,WUHU216HW,2013-09-21 04:16:00,
2013-09-20 23:21:00,56.7,53.2,29.33,NW,315,4.7,4.7,88,0.00,,,0.09,WUHU216HW,2013-09-21 04:21:00,
2013-09-20 23:26:00,56.5,53.0,29.33,NW,315,2.5,4.9,88,0.00,,,0.09,WUHU216HW,2013-09-21 04:26:00,
2013-09-20 23:31:00,56.3,52.8,29.33,NW,315,2.5,4.9,88,0.00,,,0.09,WUHU216HW,2013-09-21 04:31:00,
2013-09-20 23:36:00,56.3,53.1,29.33,West,270,2.9,2.9,89,0.00,,,0.09,WUHU216HW,2013-09-21 04:36:00,
2013-09-20 23:41:00,56.2,52.9,29.33,NNW,338,1.8,2.9,89,0.00,,,0.09,WUHU216HW,2013-09-21 04:41:00,
2013-09-20 23:46:00,56.2,52.9,29.33,NW,315,3.4,3.4,89,0.00,,,0.09,WUHU216HW,2013-09-21 04:46:00,
2013-09-20 23:51:00,56.0,52.7,29.33,NNW,338,3.1,3.4,89,0.00,,,0.09,WUHU216HW,2013-09-21 04:51:00,
2013-09-20 23:56:00,55.8,52.6,29.33,NW,315,1.8,3.4,89,0.00,,,0.09,WUHU216HW,2013-09-21 04:56:00,